When you browse on this site, cookies collect data to enhance your experience and personalize the content and advertising you see.
Visit our Privacy Policy to learn more. By continuing to use the site, you agree to this use of cookies and data.
  • In Romania
  • List of Countries
  • For 7 days
  • Water Temperature
  • Satellite Maps
  • Weather Map
  • Weather Widgets
  • user-avatar
    Login

    Hourly Weather Wicklow

    Today, 18 July, Thursday

    Time Temperature Precipitation Wind Pressure Humidity
    00:00 +9°C° 0 mm 2 mps 713 mmHg 98%
    01:00 +9°C° 0 mm 2 mps 713 mmHg 98%
    02:00 +8°C° 0 mm 2 mps 713 mmHg 97%
    03:00 +8°C° 0 mm 2 mps 713 mmHg 97%
    04:00 +9°C° 0 mm 2 mps 713 mmHg 97%
    05:00 +9°C° 0 mm 2 mps 713 mmHg 96%
    06:00 +10°C° 0 mm 3 mps 713 mmHg 97%
    07:00 +11°C° 0.1 mm 3 mps 713 mmHg 94%
    08:00 +12°C° 0.1 mm 4 mps 714 mmHg 90%
    09:00 +12°C° 0.1 mm 4 mps 714 mmHg 87%
    10:00 +13°C° 0.2 mm 5 mps 714 mmHg 83%
    11:00 +14°C° 0.2 mm 5 mps 714 mmHg 79%
    12:00 +15°C° 0.2 mm 5 mps 714 mmHg 75%
    13:00 +15°C° 0.1 mm 5 mps 714 mmHg 73%
    14:00 +15°C° 0.1 mm 5 mps 714 mmHg 72%
    15:00 +15°C° 0.1 mm 5 mps 714 mmHg 70%
    16:00 +15°C° 0.1 mm 5 mps 714 mmHg 72%
    17:00 +15°C° 0.1 mm 5 mps 714 mmHg 74%
    18:00 +14°C° 0.1 mm 5 mps 714 mmHg 76%
    19:00 +13°C° 0 mm 4 mps 714 mmHg 81%
    20:00 +11°C° 0 mm 3 mps 714 mmHg 86%
    21:00 +10°C° 0 mm 2 mps 714 mmHg 91%
    22:00 +10°C° 0 mm 2 mps 714 mmHg 92%
    23:00 +9°C° 0 mm 2 mps 713 mmHg 92%

    Tomorrow, 19 July, Friday

    Time Temperature Precipitation Wind Pressure Humidity
    00:00 +10°C° 0 mm 1 mps 713 mmHg 93%
    01:00 +10°C° 0 mm 1 mps 713 mmHg 93%
    02:00 +10°C° 0 mm 1 mps 712 mmHg 93%
    03:00 +11°C° 0 mm 1 mps 712 mmHg 92%
    04:00 +10°C° 0.4 mm 2 mps 711 mmHg 94%
    05:00 +10°C° 0.4 mm 3 mps 711 mmHg 96%
    06:00 +11°C° 0.4 mm 4 mps 710 mmHg 98%
    07:00 +12°C° 0.8 mm 4 mps 710 mmHg 97%
    08:00 +12°C° 0.8 mm 4 mps 710 mmHg 97%
    09:00 +13°C° 0.8 mm 4 mps 709 mmHg 97%
    10:00 +14°C° 0.9 mm 5 mps 709 mmHg 95%
    11:00 +15°C° 0.9 mm 5 mps 709 mmHg 93%
    12:00 +16°C° 0.9 mm 6 mps 709 mmHg 91%
    13:00 +16°C° 1.2 mm 6 mps 709 mmHg 90%
    14:00 +17°C° 1.2 mm 6 mps 709 mmHg 89%
    15:00 +17°C° 1.2 mm 6 mps 709 mmHg 89%
    16:00 +16°C° 1.1 mm 6 mps 708 mmHg 90%
    17:00 +16°C° 1.1 mm 6 mps 708 mmHg 91%
    18:00 +15°C° 1.1 mm 6 mps 708 mmHg 92%
    19:00 +14°C° 0.8 mm 5 mps 708 mmHg 93%
    20:00 +13°C° 0.8 mm 4 mps 708 mmHg 95%
    21:00 +12°C° 0.8 mm 4 mps 708 mmHg 96%
    22:00 +12°C° 0.2 mm 4 mps 708 mmHg 96%
    23:00 +12°C° 0.2 mm 3 mps 708 mmHg 97%

    Day after tomorrow, 20 July, Saturday

    Time Temperature Precipitation Wind Pressure Humidity
    00:00 +12°C° 0.2 mm 3 mps 708 mmHg 97%
    01:00 +12°C° 0 mm 3 mps 708 mmHg 97%
    02:00 +12°C° 0 mm 3 mps 709 mmHg 97%
    03:00 +11°C° 0 mm 3 mps 709 mmHg 97%
    04:00 +11°C° 0.1 mm 4 mps 709 mmHg 97%
    05:00 +11°C° 0.1 mm 4 mps 709 mmHg 97%
    06:00 +11°C° 0.1 mm 4 mps 709 mmHg 97%
    07:00 +11°C° 0.2 mm 4 mps 710 mmHg 96%
    08:00 +12°C° 0.2 mm 3 mps 711 mmHg 94%
    09:00 +12°C° 0.2 mm 3 mps 711 mmHg 93%
    10:00 +13°C° 0.1 mm 3 mps 712 mmHg 86%
    11:00 +14°C° 0.1 mm 3 mps 713 mmHg 79%
    12:00 +17°C° 0.1 mm 3 mps 714 mmHg 72%
    13:00 +17°C° 0.1 mm 3 mps 714 mmHg 71%
    14:00 +16°C° 0.1 mm 3 mps 714 mmHg 69%
    15:00 +16°C° 0.1 mm 3 mps 715 mmHg 68%
    16:00 +16°C° 0 mm 3 mps 715 mmHg 69%
    17:00 +16°C° 0 mm 2 mps 715 mmHg 70%
    18:00 +16°C° 0 mm 2 mps 716 mmHg 71%
    19:00 +15°C° 0 mm 2 mps 716 mmHg 77%
    20:00 +13°C° 0 mm 1 mps 717 mmHg 84%
    21:00 +11°C° 0 mm 1 mps 717 mmHg 91%
    22:00 +11°C° 0 mm 1 mps 717 mmHg 92%
    23:00 +11°C° 0 mm 1 mps 717 mmHg 92%

    21 July, Sunday

    Time Temperature Precipitation Wind Pressure Humidity
    00:00 +10°C° 0 mm 1 mps 717 mmHg 92%
    01:00 +10°C° 0 mm 1 mps 717 mmHg 92%
    02:00 +10°C° 0 mm 1 mps 717 mmHg 92%
    03:00 +9°C° 0 mm 1 mps 717 mmHg 92%
    04:00 +10°C° 0 mm 1 mps 718 mmHg 91%
    05:00 +9°C° 0 mm 2 mps 718 mmHg 90%
    06:00 +10°C° 0 mm 2 mps 718 mmHg 89%
    07:00 +12°C° 0 mm 2 mps 718 mmHg 88%
    08:00 +12°C° 0 mm 3 mps 719 mmHg 88%
    09:00 +13°C° 0 mm 4 mps 719 mmHg 87%
    10:00 +14°C° 0 mm 5 mps 719 mmHg 84%
    11:00 +15°C° 0 mm 5 mps 719 mmHg 81%
    12:00 +17°C° 0 mm 6 mps 720 mmHg 78%
    13:00 +17°C° 0 mm 6 mps 720 mmHg 78%
    14:00 +17°C° 0 mm 6 mps 720 mmHg 79%
    15:00 +17°C° 0 mm 7 mps 720 mmHg 79%
    16:00 +16°C° 0 mm 7 mps 719 mmHg 80%
    17:00 +16°C° 0 mm 7 mps 719 mmHg 80%
    18:00 +16°C° 0 mm 7 mps 719 mmHg 81%
    19:00 +15°C° 0 mm 6 mps 719 mmHg 83%
    20:00 +14°C° 0 mm 6 mps 719 mmHg 85%
    21:00 +14°C° 0 mm 6 mps 719 mmHg 87%
    22:00 +14°C° 0 mm 6 mps 719 mmHg 88%
    23:00 +14°C° 0 mm 6 mps 719 mmHg 90%

    22 July, Monday

    Time Temperature Precipitation Wind Pressure Humidity
    00:00 +13°C° 0 mm 6 mps 719 mmHg 91%
    01:00 +14°C° 0 mm 6 mps 718 mmHg 90%
    02:00 +14°C° 0 mm 7 mps 718 mmHg 89%
    03:00 +15°C° 0 mm 7 mps 718 mmHg 87%
    04:00 +15°C° 0 mm 6 mps 718 mmHg 88%
    05:00 +15°C° 0 mm 6 mps 718 mmHg 89%
    06:00 +15°C° 0 mm 6 mps 718 mmHg 90%
    07:00 +15°C° 0 mm 6 mps 719 mmHg 88%
    08:00 +16°C° 0 mm 6 mps 719 mmHg 86%
    09:00 +17°C° 0 mm 7 mps 719 mmHg 85%
    10:00 +17°C° 0 mm 7 mps 719 mmHg 85%
    11:00 +17°C° 0 mm 6 mps 719 mmHg 85%
    12:00 +17°C° 0 mm 6 mps 719 mmHg 85%
    13:00 +17°C° 0 mm 6 mps 719 mmHg 84%
    14:00 +18°C° 0 mm 7 mps 719 mmHg 82%
    15:00 +18°C° 0 mm 7 mps 719 mmHg 80%
    16:00 +19°C° 0 mm 6 mps 719 mmHg 82%
    17:00 +17°C° 0 mm 6 mps 719 mmHg 84%
    18:00 +16°C° 0 mm 5 mps 719 mmHg 86%
    19:00 +16°C° 0 mm 5 mps 719 mmHg 89%
    20:00 +15°C° 0 mm 4 mps 719 mmHg 92%
    21:00 +14°C° 0 mm 3 mps 719 mmHg 95%
    22:00 +13°C° 0 mm 3 mps 719 mmHg 96%
    23:00 +12°C° 0 mm 3 mps 719 mmHg 97%

    23 July, Tuesday

    Time Temperature Precipitation Wind Pressure Humidity
    00:00 +12°C° 0 mm 3 mps 719 mmHg 98%
    01:00 +12°C° 0 mm 2 mps 718 mmHg 97%
    02:00 +12°C° 0 mm 2 mps 718 mmHg 97%
    03:00 +12°C° 0 mm 2 mps 718 mmHg 97%
    04:00 +12°C° 0 mm 2 mps 718 mmHg 95%
    05:00 +12°C° 0 mm 2 mps 717 mmHg 94%
    06:00 +13°C° 0 mm 2 mps 717 mmHg 93%
    07:00 +15°C° 0 mm 2 mps 717 mmHg 86%
    08:00 +16°C° 0 mm 3 mps 717 mmHg 79%
    09:00 +18°C° 0 mm 3 mps 717 mmHg 72%
    10:00 +19°C° 0 mm 3 mps 717 mmHg 70%
    11:00 +20°C° 0 mm 3 mps 717 mmHg 69%
    12:00 +21°C° 0 mm 3 mps 717 mmHg 67%
    13:00 +22°C° 0 mm 3 mps 717 mmHg 68%
    14:00 +22°C° 0 mm 3 mps 716 mmHg 68%
    15:00 +22°C° 0 mm 3 mps 716 mmHg 69%
    16:00 +22°C° 0 mm 3 mps 716 mmHg 72%
    17:00 +21°C° 0 mm 2 mps 715 mmHg 75%
    18:00 +21°C° 0 mm 2 mps 715 mmHg 78%
    19:00 +19°C° 0 mm 2 mps 715 mmHg 83%
    20:00 +17°C° 0 mm 2 mps 715 mmHg 89%
    21:00 +16°C° 0 mm 2 mps 715 mmHg 94%
    22:00 +15°C° 0 mm 2 mps 715 mmHg 92%
    23:00 +14°C° 0 mm 1 mps 715 mmHg 90%
    Show more